This demonstration page uses our WeatherBlox Daily Observations layout. Learn more.

Left ArrowRight Arrow

41.12389, -100.76542

Hourly Observations for December 28, 2017

Temp ( °F °C ) Dew Point ( °F °C ) Humidity (%) Winds ( mph kmh ) Pressure ( in mb ) Visibility ( mi km ) Precip ( " mm )
12:53 am 00:53 Partly Cloudy 16 -8.9 11 -11.7 80 80 ESE 5 7 30.26 1025 10 16 0.00 0.00
1:53 am 01:53 Clear 14 -10 9 -12.8 80 80 Calm 30.27 1025 10 16 0.00 0.00
2:53 am 02:53 Clear 8 -13.3 6 -14.4 92 92 ESE 5 7 30.27 1025 10 16 0.00 0.00
3:53 am 03:53 Clear 4 -15.6 2 -16.7 91 91 Calm 30.30 1026 10 16 0.00 0.00
4:53 am 04:53 Mostly Clear 7 -13.9 4 -15.6 87 87 Calm 30.31 1026 10 16 0.00 0.00
5:53 am 05:53 Clear with Mist and Fog 2 -16.7 -1 -18.3 88 88 ENE 3 6 30.32 1027 3 5 0.00 0.00
6:53 am 06:53 Clear 0 -17.8 -4 -20 83 83 WSW 6 9 30.38 1029 10 16 0.00 0.00
7:53 am 07:53 Clear 3 -16.1 0 -17.8 87 87 NW 3 6 30.40 1029 10 16 0.00 0.00
8:53 am 08:53 Sunny 2 -16.7 0 -17.8 91 91 Calm 30.42 1030 10 16 0.00 0.00
9:53 am 09:53 Sunny 6 -14.4 2 -16.7 83 83 NW 6 9 30.47 1032 10 16 0.00 0.00
10:53 am 10:53 Mostly Cloudy 17 -8.3 13 -10.6 84 84 SW 10 17 30.45 1031 10 16 0.00 0.00
11:53 am 11:53 Cloudy 22 -5.6 15 -9.4 75 75 WNW 5 7 30.46 1031 10 16 0.00 0.00
12:53 pm 12:53 Mostly Sunny 24 -4.4 17 -8.3 75 75 W 7 11 30.44 1031 10 16 0.00 0.00
1:53 pm 13:53 Cloudy 27 -2.8 19 -7.2 72 72 WNW 8 13 30.43 1030 10 16 0.00 0.00
2:53 pm 14:53 Sunny 27 -2.8 19 -7.2 72 72 NNW 3 6 30.42 1030 10 16 0.00 0.00
3:53 pm 15:53 Sunny 26 -3.3 19 -7.2 75 75 Calm 30.40 1029 10 16 0.00 0.00
4:53 pm 16:53 Sunny 23 -5 18 -7.8 81 81 SSE 5 7 30.38 1029 10 16 0.00 0.00
5:53 pm 17:53 Clear 23 -5 18 -7.8 81 81 SSW 3 6 30.41 1030 10 16 0.00 0.00
6:53 pm 18:53 Mostly Clear 21 -6.1 17 -8.3 85 85 ESE 5 7 30.44 1031 10 16 0.00 0.00
7:53 pm 19:53 Clear 21 -6.1 17 -8.3 85 85 E 7 11 30.43 1031 10 16 0.00 0.00
8:53 pm 20:53 Clear 21 -6.1 17 -8.3 85 85 ESE 8 13 30.42 1030 10 16 0.00 0.00
9:53 pm 21:53 Clear 21 -6.1 18 -7.8 88 88 ESE 9 15 30.39 1029 10 16 0.00 0.00
10:53 pm 22:53 Clear 21 -6.1 17 -8.3 85 85 ESE 9 15 30.35 1028 9 14 0.00 0.00
11:53 pm 23:53 Clear 18 -7.8 15 -9.4 88 88 ESE 9 15 30.32 1027 8 13 0.00 0.00

Powered by AerisWeather